Murray, KY

2:57 AM CDT on August 20, 2017 (GMT -0500)
Kyle-Oakley

Weather History for KCEY - September, 2013

Change the Weather History Date:

Monday, September 16, 2013

  Actual Average (KPAH) Record (KPAH)
Temperature  
Mean Temperature 66 °F -  
Max Temperature 73 °F 79 °F 96 °F (1939)
Min Temperature 59 °F 59 °F 44 °F (1966)
Cooling Degree Days 1    
Growing Degree Days 16 (Base 50)    
Moisture  
Dew Point 61 °F    
Average Humidity 82    
Maximum Humidity 94    
Minimum Humidity 68    
Precipitation  
Precipitation 0.00 in - - ()
Sea Level Pressure  
Sea Level Pressure 30.16 in    
Wind  
Wind Speed 4 mph (NNE)    
Max Wind Speed 10 mph    
Max Gust Speed 16 mph    
Visibility 10 miles    
Events      
Averages and records for this station are not official NWS values.
T = Trace of Precipitation, MM = Missing Value Source: NWS Daily Summary

Daily Weather History Graph

Daily Weather History Graph

Search for Another Location

Airport or City:

Trip Planner

Search our weather history database for the weather conditions in past years. The results will help you decide how hot, cold, wet, or windy it might be!

Date:

Astronomy

Sep. 16, 2013 Rise Set
Actual Time 6:36 AM CDT 6:59 PM CDT
Civil Twilight 6:10 AM CDT 7:24 PM CDT
Nautical Twilight 5:40 AM CDT 7:55 PM CDT
Astronomical Twilight 5:09 AM CDT 8:26 PM CDT
Moon 5:04 PM CDT (9/16) 3:26 AM CDT (9/16)
Length of Visible Light 13h 14m
Length of Day
12h 22m
Waxing Gibbous, 90% of the Moon is Illuminated
Sep 16
Waxing Gibbous
Sep 19
Full
Sep 26
Last Quarter
Oct 4
New
Oct 11
First Quarter

Hourly Weather History & Observations

Time (CDT) Temp. Dew Point Humidity Pressure Visibility Wind Dir Wind Speed Gust Speed Precip Events Conditions
12:15 AM 59.0 °F 57.2 °F 94% 30.09 in 10.0 mi SSW 5.8 mph - N/A   Clear
12:35 AM 59.0 °F 57.2 °F 94% 30.10 in 10.0 mi SSW 5.8 mph - N/A   Clear
12:55 AM 62.6 °F 57.2 °F 82% 30.11 in 10.0 mi Calm Calm - N/A   Clear
1:15 AM 62.6 °F 57.2 °F 82% 30.12 in 7.0 mi Calm Calm - N/A   Clear
1:35 AM 60.8 °F 57.2 °F 88% 30.12 in 10.0 mi Calm Calm - N/A   Clear
1:55 AM 60.8 °F 57.2 °F 88% 30.12 in 10.0 mi Calm Calm - N/A   Clear
2:15 AM 59.0 °F 57.2 °F 94% 30.12 in 10.0 mi SSW 4.6 mph - N/A   Clear
2:35 AM 59.0 °F 57.2 °F 94% 30.12 in 10.0 mi Calm Calm - N/A   Clear
2:55 AM 59.0 °F 57.2 °F 94% 30.11 in 10.0 mi SW 4.6 mph - N/A   Clear
3:15 AM 59.0 °F 57.2 °F 94% 30.11 in 10.0 mi SSW 3.5 mph - N/A   Clear
3:35 AM 60.8 °F 57.2 °F 88% 30.11 in 10.0 mi SSW 4.6 mph - N/A   Clear
3:55 AM 60.8 °F 57.2 °F 88% 30.12 in 10.0 mi SSW 3.5 mph - N/A   Clear
4:15 AM 62.6 °F 57.2 °F 82% 30.12 in 10.0 mi Calm Calm - N/A   Clear
4:35 AM 62.6 °F 59.0 °F 88% 30.12 in 10.0 mi Calm Calm - N/A   Clear
4:55 AM 64.4 °F 59.0 °F 83% 30.12 in 10.0 mi SW 3.5 mph - N/A   Clear
5:15 AM 64.4 °F 59.0 °F 83% 30.12 in 10.0 mi Calm Calm - N/A   Clear
5:35 AM 64.4 °F 59.0 °F 83% 30.12 in 10.0 mi Calm Calm - N/A   Clear
5:55 AM 64.4 °F 59.0 °F 83% 30.13 in 10.0 mi Calm Calm - N/A   Clear
6:15 AM 64.4 °F 59.0 °F 83% 30.13 in 10.0 mi Calm Calm - N/A   Clear
6:35 AM 62.6 °F 59.0 °F 88% 30.14 in 10.0 mi Calm Calm - N/A   Clear
6:55 AM 62.6 °F 59.0 °F 88% 30.15 in 10.0 mi Calm Calm - N/A   Clear
7:15 AM 62.6 °F 59.0 °F 88% 30.15 in 7.0 mi NW 3.5 mph - N/A   Clear
7:35 AM 64.4 °F 59.0 °F 83% 30.15 in 9.0 mi Calm Calm - N/A   Clear
7:55 AM 66.2 °F 59.0 °F 78% 30.16 in 10.0 mi West 3.5 mph - N/A   Clear
8:15 AM 66.2 °F 59.0 °F 78% 30.17 in 10.0 mi WNW 4.6 mph - N/A   Clear
8:35 AM 68.0 °F 59.0 °F 73% 30.17 in 10.0 mi NW 5.8 mph - N/A   Clear
8:55 AM 68.0 °F 59.0 °F 73% 30.17 in 10.0 mi NNW 3.5 mph - N/A   Clear
9:15 AM 68.0 °F 59.0 °F 73% 30.18 in 10.0 mi North 4.6 mph - N/A   Clear
9:35 AM 69.8 °F 59.0 °F 68% 30.18 in 10.0 mi North 10.4 mph - N/A   Clear
9:55 AM 71.6 °F 62.6 °F 73% 30.18 in 10.0 mi North 8.1 mph - N/A   Clear
10:15 AM 71.6 °F 60.8 °F 69% 30.19 in 10.0 mi North 9.2 mph - N/A   Clear
10:35 AM 71.6 °F 60.8 °F 69% 30.19 in 10.0 mi NNE 6.9 mph - N/A   Clear
10:55 AM 71.6 °F 62.6 °F 73% 30.19 in 10.0 mi NNE 5.8 mph - N/A   Clear
11:15 AM 71.6 °F 62.6 °F 73% 30.20 in 10.0 mi North 6.9 mph - N/A   Unknown
11:35 AM 71.6 °F 62.6 °F 73% 30.19 in 10.0 mi NNE 6.9 mph - N/A   Unknown
11:55 AM 71.6 °F 62.6 °F 73% 30.19 in 10.0 mi NNE 10.4 mph - N/A   Unknown
12:15 PM 71.6 °F 62.6 °F 73% 30.19 in 10.0 mi NNE 10.4 mph - N/A   Unknown
12:35 PM 73.4 °F 62.6 °F 69% 30.20 in 10.0 mi North 10.4 mph - N/A   Clear
12:55 PM 73.4 °F 62.6 °F 69% 30.20 in 10.0 mi NE 9.2 mph - N/A   Clear
1:15 PM 71.6 °F 62.6 °F 73% 30.20 in 10.0 mi North 8.1 mph - N/A   Clear
1:35 PM 71.6 °F 62.6 °F 73% 30.20 in 10.0 mi North 9.2 mph - N/A   Clear
1:55 PM 71.6 °F 62.6 °F 73% 30.19 in 10.0 mi North 6.9 mph - N/A   Clear
2:15 PM 71.6 °F 64.4 °F 78% 30.19 in 10.0 mi NNE 9.2 mph - N/A   Clear
2:35 PM 71.6 °F 64.4 °F 78% 30.18 in 10.0 mi North 9.2 mph - N/A   Clear
2:55 PM 71.6 °F 64.4 °F 78% 30.18 in 10.0 mi North 6.9 mph - N/A   Clear
3:15 PM 71.6 °F 64.4 °F 78% 30.18 in 10.0 mi North 9.2 mph - N/A   Clear
3:35 PM 71.6 °F 62.6 °F 73% 30.17 in 10.0 mi NE 8.1 mph - N/A   Clear
3:55 PM 73.4 °F 62.6 °F 69% 30.17 in 10.0 mi NE 9.2 mph - N/A   Clear
4:15 PM 73.4 °F 64.4 °F 73% 30.17 in 10.0 mi NE 9.2 mph - N/A   Clear
4:35 PM 73.4 °F 64.4 °F 73% 30.16 in 10.0 mi NNE 9.2 mph 16.1 mph N/A   Clear
4:55 PM 73.4 °F 64.4 °F 73% 30.16 in 10.0 mi NE 9.2 mph - N/A   Clear
5:15 PM 73.4 °F 64.4 °F 73% 30.16 in 10.0 mi NE 5.8 mph - N/A   Unknown
5:35 PM 73.4 °F 64.4 °F 73% 30.16 in 10.0 mi NE 9.2 mph - N/A   Unknown
5:55 PM 73.4 °F 64.4 °F 73% 30.15 in 10.0 mi NE 6.9 mph - N/A   Unknown
6:15 PM 73.4 °F 64.4 °F 73% 30.15 in 10.0 mi NE 8.1 mph - N/A   Unknown
6:35 PM 71.6 °F 64.4 °F 78% 30.15 in 10.0 mi NNE 4.6 mph - N/A   Clear
6:55 PM 71.6 °F 64.4 °F 78% 30.15 in 10.0 mi NNE 3.5 mph - N/A   Clear
7:15 PM 71.6 °F 64.4 °F 78% 30.16 in 10.0 mi Calm Calm - N/A   Clear
7:35 PM 68.0 °F 64.4 °F 88% 30.16 in 10.0 mi NNW 3.5 mph - N/A   Clear
7:55 PM 68.0 °F 64.4 °F 88% 30.16 in 9.0 mi North 3.5 mph - N/A   Clear
8:15 PM 66.2 °F 64.4 °F 94% 30.17 in 6.0 mi Calm Calm - N/A   Clear
8:35 PM 66.2 °F 64.4 °F 94% 30.17 in 9.0 mi Calm Calm - N/A   Clear
8:55 PM 66.2 °F 64.4 °F 94% 30.17 in 9.0 mi Calm Calm - N/A   Clear
9:15 PM 66.2 °F 64.4 °F 94% 30.17 in 6.0 mi Calm Calm - N/A   Clear
9:35 PM 66.2 °F 64.4 °F 94% 30.18 in 7.0 mi NNE 3.5 mph - N/A   Clear
9:55 PM 66.2 °F 62.6 °F 88% 30.18 in 10.0 mi NNE 5.8 mph - N/A   Clear
10:15 PM 66.2 °F 62.6 °F 88% 30.18 in 10.0 mi NE 3.5 mph - N/A   Clear
10:35 PM 66.2 °F 62.6 °F 88% 30.19 in 10.0 mi NE 5.8 mph - N/A   Clear
10:55 PM 66.2 °F 64.4 °F 94% 30.19 in 10.0 mi NE 6.9 mph - N/A   Clear
11:15 PM 66.2 °F 64.4 °F 94% 30.19 in 10.0 mi ENE 6.9 mph - N/A   Clear
11:35 PM 64.4 °F 62.6 °F 94% 30.19 in 10.0 mi ENE 6.9 mph - N/A   Clear
11:55 PM 64.4 °F 62.6 °F 94% 30.19 in 10.0 mi ENE 6.9 mph - N/A   Clear